Location: Ehrke Reservoir
(40.0279°N, 99.6641°W)
Time: 01:25:02
(UTC+00:00)

Daily predictions for brighter satellites

Satellite Brightness Start Highest point End
(mag) Time Altitude Azimuth Time Altitude Azimuth Time Altitude Azimuth
USA 267 4.4 00:02:58 10° NE 00:08:41 34° NNW 00:14:23 10° W
Cosmos 2360 Rocket 3.2 00:05:02 10° NNW 00:10:31 53° WSW 00:15:57 10° S
Cosmos 1607 4.0 00:05:34 10° SSW 00:11:41 90° ESE 00:17:53 10° NNE
Starlink AR 4.1 00:09:50 10° W 00:11:59 25° NNW 00:14:10 10° NNE
Cosmos 2227 Rocket 3.6 00:10:45 10° SE 00:14:36 19° E 00:18:27 10° ENE
Cosmos 1812 Rocket 4.3 00:11:33 10° NNE 00:15:35 32° ENE 00:19:37 10° SE
Starlink AQ 4.2 00:13:28 10° W 00:16:04 29° NNW 00:18:41 10° NNE
COSMOS 2428 2.8 00:12:24 10° NNW 00:18:05 58° ENE 00:23:42 10° SE
Starlink AS 4.3 00:15:59 10° W 00:18:33 27° NNW 00:21:08 10° NNE
Cosmos 2219 Rocket 2.2 00:13:04 10° NNW 00:18:42 60° ENE 00:24:17 10° SE
Starlink BA 4.3 00:16:12 10° W 00:18:47 27° NNW 00:21:20 10° NNE
Starlink AU 4.3 00:16:26 10° W 00:18:59 27° NNW 00:21:34 10° NNE
Starlink AT 4.3 00:16:40 10° W 00:19:13 27° NNW 00:21:47 10° NNE
Starlink BB 4.3 00:16:53 10° W 00:19:26 27° NNW 00:22:00 10° NNE
Starlink BC 4.3 00:17:07 10° W 00:19:40 27° NNW 00:22:14 10° NNE
Starlink BK 4.3 00:17:20 10° W 00:19:53 27° NNW 00:22:27 10° NNE
Starlink AY 4.4 00:17:34 10° W 00:20:07 27° NNW 00:22:40 10° NNE
Starlink AW 4.4 00:17:48 10° W 00:20:20 27° NNW 00:22:53 10° NNE
Starlink BJ 4.4 00:18:00 10° W 00:20:33 26° NNW 00:23:06 10° NNE
Starlink AV 4.4 00:18:13 10° W 00:20:46 26° NNW 00:23:19 10° NNE
Starlink BD 4.4 00:18:27 10° W 00:20:59 26° NNW 00:23:32 10° NNE
Starlink BE 4.4 00:18:40 10° W 00:21:12 26° NNW 00:23:45 10° NNE
YAOGAN 1 3.7 00:17:56 10° ESE 00:21:16 22° ENE 00:24:37 10° NNE
Starlink BM 4.4 00:18:54 10° W 00:21:26 26° NNW 00:23:59 10° NNE
Starlink AX 4.4 00:19:08 10° W 00:21:40 26° NNW 00:24:12 10° NNE
Starlink BH 4.4 00:19:22 10° W 00:21:53 26° NNW 00:24:26 10° NNE
Starlink AZ 4.4 00:19:35 10° W 00:22:07 26° NNW 00:24:39 10° NNE
Starlink BG 4.4 00:19:49 10° W 00:22:20 26° NNW 00:24:52 10° NNE
ISS -1.4 00:21:41 10° SE 00:22:33 11° SE 00:23:26 10° ESE
Starlink BF 4.4 00:20:02 10° W 00:22:34 26° NNW 00:25:05 10° NNE
Starlink BL 4.4 00:20:16 10° W 00:22:46 26° NNW 00:25:18 10° NNE
AQUARIUS 4.5 00:18:25 10° S 00:22:54 74° WSW 00:27:24 10° NNW
Starlink AH 4.4 00:20:29 10° W 00:23:00 25° NNW 00:25:31 10° NNE
Starlink AC 4.4 00:20:43 10° W 00:23:13 25° NNW 00:25:45 10° NNE
Starlink X 4.4 00:20:57 10° W 00:23:27 25° NNW 00:25:58 10° NNE
Starlink AE 4.5 00:21:09 10° W 00:23:40 25° NNW 00:26:11 10° NNE
Starlink Z 4.5 00:21:24 10° W 00:23:54 25° NNW 00:26:24 10° NNE
Starlink AK 4.5 00:21:37 10° W 00:24:07 25° NNW 00:26:38 10° NNE
Starlink AL 4.5 00:21:51 10° W 00:24:21 25° NNW 00:26:51 10° NNE
Cosmos 1125 Rocket 3.5 00:19:14 10° S 00:24:22 68° ESE 00:29:32 10° NNE
Starlink AD 4.5 00:22:05 10° W 00:24:34 25° NNW 00:27:05 10° NNE
Starlink Y 4.5 00:22:32 10° W 00:25:01 25° NNW 00:27:31 10° NNE
Starlink AG 4.5 00:22:46 10° W 00:25:14 25° NNW 00:27:44 10° NNE
Starlink W 4.5 00:22:58 10° W 00:25:28 25° NNW 00:27:58 10° NNE
BREEZE-M DEB (TANK) 2.2 00:23:47 10° SW 00:26:31 57° SE 00:28:22 14° ENE
Cosmos 2184 Rocket 4.4 00:26:09 10° SSW 00:32:19 69° W 00:38:28 10° N
Cosmos-2242 4.2 00:32:01 10° NNE 00:35:15 20° ENE 00:38:26 10° ESE
Envisat 3.0 00:31:54 10° SSE 00:36:59 87° WSW 00:42:06 10° NNW
Cosmos 1602 Rocket 3.5 00:35:21 10° S 00:39:46 89° E 00:44:10 10° N
Cosmos 2154 Rocket 4.0 00:33:52 10° S 00:40:10 86° E 00:46:28 10° N
USA 234 3.9 00:35:25 10° SSE 00:41:50 58° SW 00:48:16 10° NW
Cosmos 1300 2.6 00:39:19 10° N 00:43:09 88° E 00:46:57 10° S
Cosmos 1269 Rocket 4.4 00:39:00 10° N 00:43:56 39° ENE 00:48:50 10° SE
Cosmos 1340 Rocket 2.7 00:41:38 10° N 00:45:33 63° E 00:49:29 10° SSE
Cosmos 724 4.4 00:40:28 10° SSW 00:46:20 58° ESE 00:51:45 12° NE
ERBS 2.7 00:44:04 10° SSW 00:47:15 44° SE 00:48:56 23° ENE
Cosmos 1048 Rocket 4.0 00:42:55 10° NNW 00:48:04 84° WSW 00:53:10 10° SSE
Cosmos 1461 3.1 00:43:44 10° NW 00:48:06 80° WSW 00:52:37 10° SSE
SL-14 R/B 4.3 00:46:39 10° SSW 00:50:33 48° W 00:54:26 10° N
Cosmos 1953 Rocket 4.4 00:47:25 10° SSE 00:51:15 29° E 00:54:13 15° NE
COSMO-SKYMED 1 2.5 00:47:02 10° NNE 00:51:24 89° WNW 00:55:44 10° SSW
CSL-04 Debris 4.3 00:46:33 10° SE 00:51:41 48° ENE 00:56:51 10° N
Okean-O 3.1 00:48:33 10° S 00:52:57 66° WSW 00:57:23 10° NNW
Cosmos 1758 Rocket 3.5 00:52:20 10° S 00:56:32 56° E 01:00:46 10° NNE
Cosmos 1455 4.2 00:56:23 10° NNE 00:57:01 13° NNE 00:57:01 13° NNE
Meteor 2-10 Rocket 4.1 00:55:42 10° N 01:00:30 33° ENE 01:05:07 10° SE
Cosmos 1939 Rocket 3.2 00:57:30 10° SE 01:01:07 40° ENE 01:04:49 10° N
Cosmos 1626 3.7 00:58:02 10° SSW 01:01:28 36° WNW 01:04:56 10° N
YAOGAN 6 3.6 01:01:31 10° S 01:05:06 50° W 01:08:43 10° NNW
Cosmos 2333 Rocket 3.1 01:01:22 10° NNW 01:06:54 52° WSW 01:12:21 10° S
Cosmos 2237 Rocket 2.2 01:02:39 10° NNW 01:08:12 56° ENE 01:13:42 10° SE
Meteor 1-21 Rocket 4.1 01:03:52 10° S 01:09:24 77° E 01:15:04 10° NNE
Cosmos 2366 rocket 4.2 01:03:57 10° SSE 01:09:48 47° E 01:15:44 10° NNE
CZ-4C R/B 3.0 01:02:57 10° NNW 01:10:25 86° ENE 01:18:47 10° SSE
TIMED 4.5 01:07:58 10° NNW 01:12:22 86° WSW 01:16:44 10° SSE
Cosmos 44 3.8 01:08:48 10° S 01:12:57 32° ESE 01:13:30 31° E
SL-8 R/B 4.0 01:12:48 10° SW 01:17:28 51° SE 01:18:58 37° E
Ariane Rocket 3.4 01:18:27 27° ESE 01:20:26 37° ENE 01:25:05 10° N
CSL-04 Rocket 3.6 01:15:37 10° SSE 01:21:05 86° ENE 01:26:39 10° NNW
Cosmos 1932 4.4 01:14:55 10° SSW 01:21:11 73° ESE 01:25:26 23° NE
Cosmos 1825 Rocket 3.5 01:18:17 10° S 01:22:39 83° W 01:27:01 10° N
Cosmos 494 Rocket 4.3 01:21:19 10° NNW 01:26:25 68° WSW 01:31:28 10° S
CZ-4 R/B 2.3 01:23:09 10° S 01:27:01 50° W 01:31:00 10° NNW
Shenzhou-11 Module 3.6 01:25:34 10° SW 01:27:01 23° SSW 01:27:01 23° SSW
SL-16 R/B 3.0 01:23:17 10° N 01:27:38 31° NE 01:27:38 31° NE
Cosmos 2219 3.6 01:24:05 10° SW 01:29:37 62° WNW 01:34:45 12° NNE
BREEZE-M DEB (TANK) 3.9 01:26:21 10° SW 01:30:00 36° SSE 01:30:00 36° SSE
H-2A ROCKET BODY 3.5 01:24:55 10° WSW 01:30:56 21° SSW 01:33:12 13° SSE
Cosmos 1703 3.4 01:29:02 10° S 01:32:23 55° SE 01:32:23 55° SE
Cosmos 2082 3.7 01:28:20 10° S 01:33:46 54° ESE 01:35:11 43° ENE
ADEOS Rocket 3.2 01:29:34 10° NNE 01:36:06 66° ESE 01:43:19 10° S
Cosmos 1727 Rocket 4.1 01:31:20 10° N 01:37:20 50° ENE 01:43:17 10° SSE
DELTA 2 R/B (1) 3.5 01:40:26 10° WSW 01:46:03 81° S 01:47:06 60° E
Cosmos 2297 Rocket 2.5 01:40:30 10° SSW 01:46:06 65° WNW 01:49:47 22° NNE
SL-8 Rocket 4.3 01:41:11 10° SSW 01:47:28 69° W 01:53:45 10° N
Cosmos 1980 4.1 01:44:25 10° NNW 01:50:02 62° WSW 01:55:37 10° S
Meteor 2-12 Rocket 4.4 01:48:02 10° S 01:53:36 57° ESE 01:53:36 57° ESE
YAOGAN 1 4.4 01:53:20 10° SSW 01:57:11 31° W 02:01:03 10° NNW
Cosmos 2227 Rocket 2.7 01:52:34 10° SW 01:58:06 57° WNW 02:01:12 26° N
ISS -1.8 01:55:30 10° SW 01:57:15 28° WSW 01:57:15 28° WSW
Atlas Centaur 2 3.8 02:11:46 10° SSW 02:15:18 24° S 02:15:18 24° S
FALCON 9 R/B 3.8 02:16:05 10° SW 02:27:35 32° S 02:27:43 32° S
ATLAS 5 CENTAUR R/B 4.3 02:37:37 10° NNW 03:13:37 - SE 02:41:18 43° NNE
SL-16 R/B 4.2 03:07:17 10° NW 03:09:35 22° NW 03:09:35 22° NW
Cosmos 2297 Rocket 3.9 10:43:36 27° SE 10:43:36 27° SE 10:46:11 10° SE
Cosmos 2227 Rocket 3.4 10:54:54 36° SE 10:54:54 36° SE 10:58:19 10° SE
Cosmos 2369 3.9 11:16:43 71° ENE 11:16:43 71° ENE 11:22:01 10° NNE
Cosmos 2184 Rocket 3.8 11:27:40 48° NNW 11:29:35 85° W 11:35:51 10° S
USA 215 3.6 11:23:25 10° ESE 11:29:47 58° NE 11:32:12 38° NNW
COSMOS 2455 3.7 11:27:40 10° S 11:33:24 49° ESE 11:39:10 10° NE
Cosmos 1953 3.7 11:31:57 10° SSE 11:35:42 39° E 11:39:30 10° NNE
Cosmos 773 Rocket 3.9 11:36:10 78° SSW 11:36:32 90° W 11:41:51 10° NNE
Cosmos 2154 Rocket 4.2 11:31:24 10° N 11:37:36 70° E 11:43:45 10° SSE
Cosmos 1980 Rocket 2.7 11:33:19 10° S 11:38:53 60° ESE 11:44:28 10° NNE
Cosmos 44 Rocket 3.7 11:43:06 45° N 11:44:11 56° NE 11:48:51 10° SE
FENGYUN 3A 4.2 11:38:53 10° NNE 11:44:13 58° E 11:49:32 10° S
COSMO-SKYMED 1 2.9 11:41:00 10° SSE 11:45:17 65° ENE 11:46:47 38° N
CENTAUR R/B 4.4 11:38:57 12° NNW 11:45:29 35° NE 11:53:13 10° ESE
Cosmos 1697 Rocket 2.6 11:47:02 63° WNW 11:47:09 63° WNW 11:52:44 10° NNE
STARLINK-58 4.3 11:47:49 44° SSE 11:48:23 47° SE 11:52:16 10° ENE
STARLINK 4.4 11:49:13 39° SSE 11:49:50 43° SE 11:53:31 10° ENE
STARLINK-62 4.2 11:49:32 47° SSE 11:50:04 51° SE 11:53:58 10° ENE
Cosmos 1610 Rocket 4.4 11:47:00 10° N 11:53:18 83° W 11:59:38 10° S
